Wind_Speed
31 30 33 36 38 40 42 44 45 47 48 48 49 47 47 47 48 51 53 54 57 57 60 64 64 61 61 62 62 58 54 52 50 46 43 41 40 35 38 36 37 40 36 31
30 29 32 35 37 38 40 42 44 46 48 48 50 47 48 50 49 50 53 55 55 56 57 58 63 66 65 68 66 62 58 59 54 54 51 50 42 41 42 40 41 43 39 35
31 32 34 36 38 40 41 43 45 48 49 51 53 48 48 50 52 53 54 56 56 56 57 57 58 60 68 71 72 70 66 65 56 52 53 51 50 50 46 43 42 44 41 35
26 29 32 34 35 36 37 41 43 45 47 50 52 54 48 51 55 57 58 60 61 60 61 60 59 59 60 65 70 69 64 62 58 51 49 51 50 48 44 44 42 43 39 39
26 26 27 29 32 34 36 37 40 44 47 51 51 56 50 53 55 58 61 63 64 64 63 62 62 61 58 61 63 64 65 65 61 55 51 51 52 47 48 42 44 42 41 41
23 25 27 27 28 32 34 34 39 42 46 49 51 54 54 57 58 60 62 65 67 66 66 65 64 63 62 60 61 61 63 63 64 62 55 50 48 46 43 39 44 46 45 42
19 22 22 23 26 26 27 28 34 37 39 40 44 51 51 57 55 61 64 66 67 67 67 68 67 66 64 63 62 61 62 61 60 58 58 53 47 38 38 35 37 42 44 44
15 13 14 19 24 25 23 24 27 37 39 43 36 48 47 50 55 50 58 64 67 68 67 68 69 68 68 65 62 63 61 61 58 55 57 56 44 37 43 40 39 40 46 49
13 12 13 20 22 24 23 24 27 32 38 44 45 43 45 43 42 46 48 53 61 67 68 68 69 70 67 66 64 60 59 60 55 54 55 51 41 45 41 42 41 41 42 41
17 18 13 18 22 22 24 25 25 28 37 39 38 38 36 32 35 42 46 43 42 48 57 68 70 68 71 66 63 63 57 54 56 52 49 50 42 41 42 42 44 42 42 40
18 20 11 16 22 21 24 24 26 26 32 36 37 35 29 29 29 25 26 35 38 41 47 54 61 65 69 69 68 64 60 55 53 53 48 46 41 40 41 44 43 42 38 33
19 21 11 14 18 20 19 20 25 30 31 35 38 27 29 27 30 31 28 29 34 40 44 49 48 53 61 65 67 66 62 55 52 51 51 44 40 42 43 45 42 38 35 32
21 19 16 17 19 21 18 21 24 28 32 32 33 29 26 26 29 32 29 33 34 34 35 38 39 39 51 59 61 66 64 56 53 53 49 43 42 45 46 41 39 33 35 34
24 20 20 18 18 18 13 17 23 29 28 27 26 24 20 25 31 34 32 31 34 32 29 36 39 37 49 56 68 67 62 58 51 50 49 49 43 42 41 37 34 35 35 36
27 21 21 19 18 22 18 18 21 28 27 32 22 23 23 26 23 23 32 32 35 31 17 22 27 36 45 50 63 67 58 53 49 50 48 48 46 42 38 33 34 35 34 30
28 23 22 18 21 24 15 18 24 23 28 28 25 21 26 23 25 20 21 25 25 36 18 19 24 39 44 50 48 51 52 52 54 49 46 45 38 34 32 34 35 32 28 30
26 25 25 19 22 29 22 27 25 23 25 22 19 20 19 27 28 26 29 20 19 31 22 24 27 11 17 22 50 52 56 47 46 43 45 41 36 33 33 32 32 29 30 30
21 24 21 19 21 21 25 22 24 22 22 21 19 19 25 32 18 17 24 11 15 25 21 34 33 27 32 42 49 51 47 44 41 40 43 40 35 33 34 31 30 31 27 28
20 18 17 25 23 20 17 21 23 24 15 25 26 25 22 28 24 18 17 7 11 15 13 31 37 32 33 42 41 40 43 41 36 41 42 41 37 31 31 31 32 28 27 26
21 19 22 26 29 25 19 24 27 27 23 23 27 30 24 26 28 15 22 10 9 14 14 40 33 28 29 35 41 42 42 43 44 46 42 42 40 36 31 30 27 27 26 24
21 23 23 25 28 23 22 25 27 30 30 28 32 27 29 27 32 27 25 12 12 14 15 22 30 19 32 35 43 48 46 51 51 43 46 36 32 32 30 29 29 27 22 20
18 22 23 27 29 26 23 25 29 32 30 34 33 31 35 32 32 29 25 16 17 16 13 24 31 29 21 26 30 33 41 49 55 43 40 33 30 29 29 29 25 20 19 18
24 24 25 23 22 26 27 27 31 31 29 30 38 41 42 38 28 28 22 19 18 14 18 26 33 27 23 29 29 34 49 40 56 38 39 34 33 30 28 24 20 19 17 15
17 20 28 27 20 25 28 32 30 28 34 40 40 43 29 17 27 30 23 23 20 21 21 23 24 21 24 23 26 39 36 46 53 45 40 36 32 29 24 21 20 17 14 13
17 19 20 20 20 24 28 33 35 35 40 43 37 35 24 17 27 33 29 25 22 24 27 24 23 19 19 19 17 37 46 48 48 43 38 33 30 26 23 20 16 14 13 13
13 12 9 10 18 24 26 30 32 38 37 27 29 34 26 17 27 29 34 26 21 23 26 21 22 22 19 20 33 44 46 45 42 38 34 31 27 23 21 18 14 12 11 11
Wind_Direction
244 243 245 246 244 245 247 248 249 250 250 250 249 245 246 244 241 242 242 242 242 240 236 231 237 240 244 242 242 239 238 248 253 253 252 259 261 259 262 264 265 270 275 280
247 246 246 248 250 249 248 249 251 252 253 252 252 246 246 248 247 245 245 245 244 242 243 239 234 238 238 241 239 238 241 239 248 252 256 258 259 262 263 267 271 275 281 278
252 253 251 250 251 253 253 253 253 254 254 256 254 247 246 247 250 248 246 245 243 243 242 240 240 237 239 239 241 242 245 249 244 251 251 249 250 255 262 267 271 275 275 279
251 251 253 255 256 257 257 259 259 258 257 256 255 257 248 250 249 250 251 250 247 243 243 239 236 236 237 239 242 247 247 247 247 241 246 248 250 254 261 263 264 267 275 275
258 258 258 259 260 262 264 264 265 265 266 263 260 260 252 249 251 251 250 250 248 248 244 242 239 236 231 235 239 242 247 252 253 251 240 246 251 254 260 258 260 270 269 269
264 266 265 264 264 265 266 267 267 268 269 269 269 267 254 255 252 251 250 249 248 247 247 246 243 239 236 231 234 238 241 246 252 257 256 246 250 256 258 259 260 260 262 266
268 263 262 260 259 268 278 286 287 282 281 277 273 271 265 264 263 256 254 251 249 246 246 245 244 243 240 236 231 233 235 240 246 251 255 252 250 250 255 257 252 251 254 258
259 252 266 278 284 287 288 300 304 300 304 292 278 274 267 261 261 260 258 257 254 251 247 244 243 241 241 241 236 230 234 238 240 244 250 252 248 247 248 248 244 249 252 256
256 225 262 278 286 291 304 306 304 304 314 304 292 274 264 259 259 258 254 257 258 257 253 247 243 242 238 238 240 236 230 233 238 242 244 249 247 243 246 248 248 247 250 258
264 259 262 267 282 294 297 303 304 307 311 302 297 292 287 254 255 261 265 272 271 267 261 254 247 244 240 236 235 237 232 229 233 236 242 244 239 240 239 244 249 252 256 261
266 266 281 275 281 291 297 302 300 306 305 301 298 294 298 272 265 287 276 267 274 275 266 259 252 245 240 236 232 231 232 228 228 232 233 242 237 237 239 242 247 249 255 259
269 275 277 272 281 286 297 297 301 303 303 295 295 319 299 282 263 285 286 278 280 287 273 275 271 253 234 231 228 229 228 228 225 227 229 230 234 230 234 238 243 248 246 253
268 263 262 263 274 280 291 297 304 303 298 297 295 328 296 284 278 280 283 284 288 286 273 265 266 257 228 216 217 222 223 223 220 226 227 222 225 228 231 238 243 250 242 246
264 263 265 267 266 275 280 302 310 308 307 302 310 314 324 299 285 271 277 293 295 304 273 268 255 254 210 209 211 213 217 218 218 221 225 219 226 234 234 236 246 245 242 241
263 263 257 266 267 270 282 295 303 302 302 300 312 305 319 316 308 280 273 284 288 281 259 255 234 213 202 207 215 210 209 212 216 218 217 215 222 228 231 236 240 238 232 226
262 266 259 261 273 276 286 290 303 300 305 299 294 301 321 321 311 306 285 268 275 288 211 224 216 185 200 213 215 217 203 209 209 208 211 214 219 224 228 231 229 222 219 228
264 269 271 257 263 271 279 297 290 294 310 306 305 306 318 324 313 302 292 273 277 273 227 195 179 72 196 174 205 207 205 207 209 209 215 215 216 216 220 220 211 214 218 224
263 271 266 265 265 286 275 274 283 292 305 302 313 296 318 333 319 283 273 252 280 295 193 210 221 207 212 183 194 206 210 208 207 211 208 209 209 210 203 201 209 214 216 225
271 259 275 263 274 275 279 277 283 288 292 297 298 308 322 324 348 297 272 231 291 305 186 222 220 213 194 190 199 207 203 200 205 205 204 203 200 192 183 197 211 208 216 221
263 267 264 270 272 274 280 273 280 286 294 294 292 298 311 324 336 302 274 241 245 286 260 222 225 217 215 207 201 213 215 202 198 197 197 199 195 181 197 202 205 209 212 213
261 263 273 275 277 281 277 278 286 293 297 294 293 310 308 306 304 306 266 218 223 241 253 231 232 232 218 219 221 217 218 203 207 187 189 186 170 182 191 198 202 206 206 213
282 275 266 265 273 286 284 281 290 295 301 303 304 310 307 304 301 289 234 199 216 224 240 239 230 232 234 224 225 217 222 203 207 176 169 165 177 187 192 195 196 200 210 217
262 264 266 266 273 290 290 291 293 295 295 297 306 310 310 305 284 243 203 195 217 223 248 246 246 246 233 227 234 223 208 197 207 176 166 172 184 188 187 185 189 204 213 223
282 267 268 281 290 293 291 288 289 296 295 305 309 308 316 289 236 219 198 201 217 230 246 247 235 226 210 207 222 218 178 149 161 157 166 173 179 179 177 183 193 203 215 229
280 294 309 312 298 292 299 294 288 287 299 305 304 300 306 273 228 206 198 202 213 230 238 246 245 201 195 207 178 126 136 155 154 159 166 169 172 169 176 186 192 202 220 230
334 327 325 321 308 302 301 303 293 294 297 295 296 290 295 264 222 202 196 188 202 222 227 224 206 195 194 209 137 141 145 152 158 157 161 162 163 168 178 182 185 202 218 235
Height
5707 5710 5710 5712 5715 5716 5718 5720 5721 5722 5725 5728 5730 5738 5740 5741 5745 5747 5749 5754 5757 5761 5766 5771 5774 5779 5783 5787 5790 5791 5794 5801 5804 5809 5814 5816 5822 5827 5828 5829 5831 5830 5830 5830
5701 5702 5703 5704 5705 5708 5710 5712 5712 5713 5713 5717 5718 5727 5731 5730 5735 5736 5737 5739 5744 5747 5752 5760 5765 5767 5771 5774 5779 5784 5787 5788 5794 5799 5804 5807 5811 5815 5818 5821 5822 5822 5825 5823
5693 5694 5695 5696 5697 5698 5700 5701 5703 5703 5705 5705 5706 5713 5719 5721 5721 5723 5724 5726 5729 5734 5738 5744 5750 5755 5758 5763 5767 5771 5777 5781 5783 5789 5793 5797 5800 5804 5808 5812 5814 5815 5814 5814
5687 5687 5687 5687 5689 5690 5692 5691 5691 5691 5693 5693 5695 5696 5709 5709 5707 5707 5710 5711 5713 5720 5724 5730 5735 5741 5745 5752 5757 5759 5764 5769 5774 5776 5781 5786 5791 5796 5800 5803 5804 5804 5806 5807
5678 5679 5679 5679 5679 5679 5681 5681 5680 5679 5679 5678 5683 5679 5699 5695 5694 5694 5694 5696 5699 5702 5707 5714 5721 5726 5733 5738 5741 5747 5752 5755 5761 5768 5770 5776 5781 5786 5790 5793 5795 5795 5797 5797
5672 5671 5672 5671 5671 5671 5671 5671 5669 5669 5667 5668 5667 5661 5681 5678 5679 5678 5677 5676 5679 5686 5693 5699 5704 5711 5718 5723 5728 5734 5739 5745 5748 5753 5760 5764 5771 5776 5779 5782 5784 5785 5787 5788
5666 5666 5666 5664 5663 5663 5662 5661 5659 5659 5657 5658 5656 5647 5667 5660 5660 5658 5652 5655 5661 5668 5676 5682 5687 5695 5702 5708 5715 5720 5727 5734 5740 5744 5750 5756 5760 5768 5769 5771 5773 5774 5776 5778
5662 5661 5659 5657 5655 5656 5656 5655 5652 5645 5643 5643 5645 5638 5645 5644 5640 5636 5636 5637 5642 5651 5658 5664 5669 5677 5684 5691 5700 5709 5716 5724 5729 5734 5739 5746 5755 5757 5759 5761 5762 5764 5767 5769
5655 5656 5655 5651 5650 5649 5648 5646 5643 5639 5635 5629 5628 5629 5627 5626 5625 5622 5622 5624 5626 5630 5635 5643 5652 5658 5667 5675 5686 5694 5704 5712 5717 5724 5730 5737 5743 5746 5749 5751 5752 5754 5757 5759
5648 5648 5649 5647 5644 5643 5641 5640 5637 5632 5627 5621 5619 5613 5613 5615 5614 5613 5613 5614 5615 5615 5616 5621 5630 5637 5649 5661 5670 5678 5690 5700 5708 5714 5720 5726 5734 5737 5739 5740 5740 5745 5748 5749
5640 5640 5643 5640 5638 5638 5635 5633 5629 5626 5621 5614 5608 5610 5608 5608 5607 5607 5606 5605 5605 5605 5604 5602 5608 5616 5627 5642 5651 5663 5675 5687 5695 5703 5708 5716 5723 5727 5728 5729 5733 5736 5740 5740
5635 5633 5635 5635 5632 5632 5630 5627 5623 5619 5616 5608 5603 5598 5599 5599 5600 5598 5597 5597 5596 5594 5593 5593 5594 5596 5606 5618 5633 5648 5662 5674 5684 5690 5696 5705 5711 5715 5717 5721 5725 5729 5730 5730
5629 5629 5629 5629 5628 5625 5624 5621 5617 5612 5607 5604 5600 5595 5592 5591 5591 5590 5589 5587 5587 5584 5581 5581 5582 5582 5590 5602 5616 5631 5647 5661 5670 5678 5686 5693 5698 5702 5707 5713 5717 5718 5720 5722
5621 5623 5622 5623 5621 5619 5619 5615 5611 5605 5600 5597 5594 5589 5589 5585 5582 5580 5579 5576 5574 5570 5568 5568 5570 5573 5578 5589 5598 5615 5633 5648 5660 5667 5674 5681 5688 5693 5699 5704 5707 5708 5711 5715
5614 5616 5616 5616 5614 5611 5611 5609 5607 5600 5597 5589 5590 5584 5582 5577 5572 5569 5570 5567 5563 5561 5556 5557 5559 5565 5575 5586 5592 5605 5622 5638 5648 5656 5662 5670 5677 5684 5690 5694 5696 5700 5705 5710
5607 5609 5608 5609 5607 5604 5604 5602 5598 5595 5590 5584 5581 5580 5576 5571 5567 5563 5560 5556 5554 5554 5555 5554 5557 5566 5572 5582 5589 5604 5616 5625 5635 5644 5654 5662 5670 5676 5682 5685 5690 5695 5701 5705
5599 5601 5600 5602 5601 5597 5598 5596 5592 5589 5584 5579 5576 5575 5572 5567 5560 5555 5551 5547 5548 5548 5546 5550 5553 5555 5562 5572 5583 5594 5606 5618 5629 5640 5648 5657 5663 5668 5674 5679 5685 5691 5697 5700
5595 5594 5593 5595 5594 5592 5591 5590 5585 5583 5580 5576 5572 5570 5566 5562 5556 5551 5544 5544 5544 5541 5543 5546 5546 5548 5557 5565 5580 5592 5605 5614 5624 5634 5644 5651 5656 5661 5667 5675 5682 5686 5692 5695
5588 5588 5587 5587 5586 5588 5587 5582 5579 5577 5579 5571 5567 5565 5562 5556 5551 5545 5540 5540 5541 5541 5542 5545 5547 5551 5558 5570 5579 5589 5596 5606 5617 5629 5638 5645 5649 5656 5664 5671 5678 5683 5688 5691
5582 5583 5582 5581 5578 5579 5578 5574 5572 5570 5570 5566 5562 5560 5558 5552 5547 5545 5540 5538 5541 5541 5541 5541 5546 5551 5557 5568 5577 5584 5593 5601 5611 5620 5631 5636 5637 5650 5661 5667 5673 5678 5683 5687
5577 5576 5576 5573 5570 5573 5571 5568 5566 5563 5563 5558 5554 5552 5548 5546 5541 5537 5536 5537 5539 5539 5540 5542 5544 5550 5558 5567 5572 5581 5588 5597 5605 5611 5620 5627 5636 5648 5657 5664 5670 5676 5679 5681
5572 5570 5569 5567 5565 5565 5564 5562 5560 5555 5553 5547 5544 5542 5537 5536 5531 5526 5529 5533 5535 5536 5541 5540 5544 5549 5556 5562 5569 5578 5581 5590 5602 5614 5615 5625 5638 5648 5655 5662 5666 5670 5674 5676
5566 5564 5562 5562 5561 5559 5555 5554 5550 5546 5544 5542 5535 5532 5528 5522 5518 5518 5526 5530 5530 5536 5538 5539 5541 5548 5557 5562 5567 5568 5573 5584 5589 5587 5616 5627 5639 5646 5653 5658 5663 5667 5670 5672
5558 5556 5554 5555 5558 5554 5551 5546 5543 5540 5535 5531 5527 5518 5518 5512 5510 5513 5520 5525 5530 5534 5537 5538 5544 5551 5556 5561 5563 5564 5571 5579 5588 5601 5616 5626 5636 5644 5651 5656 5660 5664 5666 5668
5553 5554 5554 5553 5550 5546 5544 5539 5535 5534 5527 5521 5516 5510 5511 5505 5504 5511 5516 5522 5530 5535 5538 5539 5545 5553 5557 5565 5560 5557 5565 5575 5593 5605 5617 5626 5635 5642 5649 5655 5658 5660 5663 5665
5554 5551 5550 5548 5545 5541 5537 5533 5528 5524 5520 5514 5509 5505 5504 5502 5502 5508 5511 5521 5529 5533 5538 5542 5549 5555 5561 5568 5566 5572 5581 5591 5601 5608 5618 5627 5636 5642 5649 5653 5655 5658 5660 5661